weather.gov     
National Weather Service

Regional Weather Roundup
NWS Homepage
This page is being discontinued on March 12, 2014.
The same data is available at this site. Please update your bookmarks.
Thank you, and we apologize for the inconvenience.
Please send an email to SR-SRH.Webmaster@noaa.gov with any concerns.


Current Version
Previous Version:    01  02  03  04  05  06  07  08  09  10  11  12  13  14  15  16  17  18  19  20  21  22  23  24  25  26  
[Printable]
526
ASUS44 KBMX 210410
RWRAL

ALABAMA REGIONAL WEATHER ROUNDUP
NATIONAL WEATHER SERVICE BIRMINGHAM AL
1100 PM CDT SUN APR 20 2014

NOTE: "FAIR" INDICATES FEW OR NO CLOUDS BELOW 12,000 FEET
WITH NO SIGNIFICANT WEATHER AND/OR OBSTRUCTIONS TO VISIBILITY.

THE REMARK "TC" DENOTES TEMPERATURE IN DEGREES CELSIUS.

ALZ001>011-014-016>018-020-210500-
NORTH ALABAMA

CITY           SKY/WX    TMP DP  RH WIND       PRES   REMARKS
MUSCLE SHOALS  CLEAR     56  47  71 CALM      30.14S
HUNTSVILLE     CLEAR     59  51  75 SE3       30.14S
DECATUR        CLEAR     54  49  83 CALM      30.14S
HALEYVILLE     FAIR      53  49  86 CALM      30.17S
GADSDEN        NOT AVBL
$$

ALZ012-013-022-023-030>036-040>044-210500-
WEST CENTRAL ALABAMA

CITY           SKY/WX    TMP DP  RH WIND       PRES   REMARKS
TUSCALOOSA     CLEAR     58  52  80 CALM      30.14S
$$

ALZ015-024>027-033>036-040>044-210500-
CENTRAL ALABAMA

CITY           SKY/WX    TMP DP  RH WIND       PRES   REMARKS
BIRMINGHAM     PTCLDY    59  49  69 CALM      30.17S
MONTGOMERY     CLEAR     62  55  77 CALM      30.15S
SHELBY CO ARPT CLEAR     60  56  86 CALM      30.15S
MAXWELL AFB    CLEAR     64  62  96 S1        30.15R
GREENVILLE     FAIR      58  54  86 CALM      30.15S
$$

ALZ019-021-028-029-037-038-045>048-210500-
EAST CENTRAL ALABAMA

CITY           SKY/WX    TMP DP  RH WIND       PRES   REMARKS
ANNISTON       CLEAR     55  51  86 CALM      30.16S
ALEXANDER CITY CLEAR     58  52  82 CALM      30.17S
AUBURN         CLEAR     55  52  88 CALM      30.19R
$$

ALZ051>064-210500-
SOUTHWEST ALABAMA

CITY           SKY/WX    TMP DP  RH WIND       PRES   REMARKS
MOBILE         PTCLDY    60  56  86 SE8       30.16S
BROOKLEY FIELD CLEAR     62  55  77 SE8       30.17S
EVERGREEN      CLEAR     56  53  90 CALM      30.17S FOG
$$

ALZ049-050-065>069-210500-
SOUTHEAST ALABAMA

CITY           SKY/WX    TMP DP  RH WIND       PRES   REMARKS
DOTHAN         CLEAR     56  53  90 NW5       30.18S
OZARK          CLEAR     55  53  96 W2        30.14F
TROY           CLEAR     56  53  90 CALM      30.16S
EUFAULA        FAIR      54  51  90 CALM      30.14S FOG
$$




U.S. Dept. of Commerce
NOAA National Weather Service
1325 East West Highway
Silver Spring, MD 20910
E-mail: w-nws.webmaster@noaa.gov
Page last modified: May 16, 2007
NATIONAL WEATHER SERVICE: for Safety, for Work, for Fun - FOR LIFE